Regional Weather Roundup
Issued by NWS

Home | Current Version | Previous Version | Text Only | Print | Product List | Glossary On
Versions: 1 2 3 4 5 6 7 8 9 10 11 12 13 14 15 16 17 18 19 20 21 22 23 24 25 26 27 28 29 30 31 32 33 34 35 36 37 38 39 40 41 42 43 44 45 46 47 48 49 50
000
ASCA42 TJSJ 300510
RWRPR
PUERTO RICO/U.S. VIRGIN ISLANDS HOURLY WEATHER ROUNDUP
NATIONAL WEATHER SERVICE SAN JUAN PR
100 AM AST TUE MAY 30 2017

PRZ001>002-007>008-010-300600-
PUERTO RICO

CITY           SKY/WX    TMP DP  RH WIND       PRES   REMARKS
SAN JUAN LMM   CLOUDY    79  75  89 E7        30.09F
PONCE          PTCLDY    79  72  78 NE7       30.11F
CEIBA          MOCLDY    79  79 100 NE3       30.12F
$$

VIZ001>002-300600-
U.S. VIRGIN ISLANDS

CITY           SKY/WX    TMP DP  RH WIND       PRES   REMARKS
CHARLOTTE AMA  CLEAR     84  77  79 E6        30.10F HX  94
CHRISTIANSTED  CLOUDY    81  75  83 E12       30.10F
$$

HOURLY WEATHER ROUNDUP FOR THE NEWS MEDIA

CITY           SKY/WX    TMP DP  RH WIND       PRES   REMARKS
ORLANDO        CLEAR     82  73  74 S3        30.09S
NEW YORK       CLOUDY    56  54  93 SE10      30.14R
NEWARK         CLOUDY    57  53  86 S7        30.12R
CHICAGO        PTCLDY    60  46  59 CALM      29.89R
HARTFORD       CLOUDY    50  48  93 N3        30.12R
BOSTON         CLOUDY    49  47  93 N7        30.15R
DALLAS         CLEAR     75  59  57 E5        30.06R
PHILADELPHIA   CLOUDY    57  52  83 SE9       30.12S
LOS ANGELES    CLOUDY    60  56  86 SW6       29.92R
WASHINGTON DC  CLOUDY    68  64  87 SE7       30.01S


USA.gov is the U.S. government's official web portal to all federal, state and local government web resources and services.